FW2982 Weather Reports


time (UTC)temp
C
wind
direction
speed
KPH
gust
KPH
rain 1hr
cm
rain 24hr
cm
rain mn
cm
humidity
%
barometer
mb
20260905200438 27 251 0.0 4.8 0.00 0.18 0.05 75 1008.5
20260905195418 27 72 1.6 9.7 0.00 0.18 0.05 74 1008.5
20260905194918 27 72 1.6 9.7 0.00 0.18 0.05 72 1008.5
20260905194415 27 93 3.2 9.7 0.00 0.18 0.05 72 1008.7
20260905193913 27 68 3.2 9.7 0.00 0.18 0.05 73 1008.7
20260905193414 27 56 1.6 6.4 0.00 0.18 0.05 75 1008.7
20260905192914 27 310 0.0 1.6 0.00 0.18 0.05 75 1008.7
20260905192413 27 309 0.0 3.2 0.00 0.20 0.05 75 1008.8
20260905191914 27 306 1.6 4.8 0.00 0.20 0.05 73 1008.8
20260905191654 27 337 1.6 4.8 0.00 0.20 0.05 73 1008.7
20260905190913 26 37 0.0 6.4 0.00 0.20 0.05 76 1008.8
20260905190412 27 37 0.0 8.0 0.00 0.20 0.05 74 1008.8
20260905185912 27 245 3.2 8.0 0.00 0.20 0.05 74 1008.8
20260905185413 27 54 3.2 8.0 0.00 0.20 0.05 75 1009.0
20260905184911 26 68 1.6 4.8 0.00 0.20 0.05 75 1009.0
20260905184411 26 68 3.2 4.8 0.00 0.20 0.05 75 1009.1
20260905183911 27 203 1.6 4.8 0.00 0.20 0.05 76 1009.1
20260905183412 26 54 1.6 4.8 0.00 0.20 0.05 74 1009.0
20260905182911 26 28 0.0 6.4 0.00 0.20 0.05 76 1009.1
20260905182412 26 32 4.8 6.4 0.03 0.23 0.05 76 1009.1
20260905182218 27 48 1.6 9.7 0.03 0.23 0.05 74 1009.2
20260905181928 27 10 1.6 4.8 0.03 0.23 0.05 76 1009.3
20260905180910 26 45 1.6 9.7 0.03 0.23 0.05 76 1009.3
20260905180411 26 51 3.2 6.4 0.03 0.23 0.05 75 1009.3
20260905180151 26 282 1.6 8.0 0.03 0.20 0.05 75 1009.4
20260905175410 26 278 1.6 8.0 0.03 0.20 0.05 78 1009.5
20260905175143 26 79 1.6 3.2 0.03 0.23 0.05 79 1009.5
20260905174404 26 38 1.6 3.2 0.03 0.23 0.05 79 1009.5
20260905174139 26 38 1.6 3.2 0.03 0.23 0.05 78 1009.7
20260905173402 26 34 0.0 3.2 0.03 0.23 0.05 79 1009.9
20260905173143 26 34 0.0 0.0 0.03 0.23 0.05 78 1009.8
20260905172645 26 34 0.0 0.0 0.00 0.23 0.03 77 1009.9
20260905171903 26 34 0.0 0.0 0.00 0.23 0.03 81 1009.9
20260905171402 26 38 0.0 0.0 0.00 0.23 0.03 79 1010.0
20260905170902 26 38 0.0 0.0 0.00 0.25 0.03 81 1010.2
20260905170402 26 35 0.0 0.0 0.00 0.25 0.03 82 1010.2
20260905165904 26 35 0.0 0.0 0.00 0.25 0.03 83 1010.2
20260905165403 26 35 0.0 0.0 0.00 0.25 0.03 82 1010.2
20260905164843 26 35 0.0 0.0 0.00 0.25 0.03 80 1010.3
20260905164342 26 37 0.0 0.0 0.00 0.28 0.03 79 1010.2
20260905163843 26 37 0.0 4.8 0.00 0.28 0.03 79 1010.2
20260905163342 26 37 1.6 4.8 0.00 0.28 0.03 79 1010.4
20260905162839 26 303 0.0 0.0 0.00 0.28 0.03 79 1010.3
20260905162339 26 303 0.0 0.0 0.00 0.28 0.03 80 1010.4
20260905161838 25 306 0.0 0.0 0.00 0.28 0.03 81 1010.5
20260905161334 25 306 0.0 0.0 0.00 0.28 0.03 82 1010.5
20260905160835 25 306 0.0 0.0 0.00 0.28 0.03 80 1010.7
20260905160335 25 305 0.0 0.0 0.00 0.30 0.03 82 1010.8
20260905155834 25 309 0.0 3.2 0.00 0.30 0.03 82 1010.6
20260905155614 25 307 0.0 4.8 0.00 0.30 0.03 80 1010.7
20260905154833 26 23 0.0 4.8 0.00 0.30 0.03 80 1010.8
20260905154700 25 241 1.6 6.4 0.00 0.33 0.03 81 1010.7
20260905154408 26 285 1.6 4.8 0.00 0.33 0.03 81 1010.6
20260905154131 25 63 1.6 4.8 0.00 0.33 0.03 82 1010.6
20260905152831 25 52 0.0 6.4 0.00 0.33 0.03 83 1010.7
20260905152331 25 278 0.0 4.8 0.00 0.33 0.03 83 1010.8
20260905151830 25 63 0.0 3.2 0.00 0.36 0.03 83 1010.9
20260905151612 25 63 0.0 3.2 0.00 0.36 0.03 84 1010.8
20260905150832 25 63 0.0 0.0 0.00 0.36 0.03 86 1011.0
20260905150332 25 63 0.0 1.6 0.00 0.36 0.03 85 1011.0
20260905145832 25 63 0.0 3.2 0.00 0.38 0.03 84 1011.0
20260905145331 25 63 0.0 3.2 0.00 0.38 0.03 84 1011.0
20260905144830 25 63 0.0 1.6 0.00 0.38 0.03 82 1011.0
20260905144331 25 62 0.0 1.6 0.00 0.38 0.03 83 1010.9
20260905144053 25 63 0.0 4.8 0.00 0.38 0.03 83 1010.9
20260905143310 25 63 1.6 4.8 0.00 0.38 0.03 82 1010.8
20260905142809 25 58 1.6 4.8 0.00 0.38 0.03 84 1010.8
20260905142547 25 114 0.0 1.6 0.00 0.38 0.03 86 1010.7
20260905142045 25 178 0.0 3.2 0.00 0.38 0.03 86 1010.7
20260905141306 25 178 0.0 4.8 0.00 0.41 0.03 84 1010.6
20260905140806 25 183 0.0 4.8 0.00 0.41 0.03 84 1010.5
20260905140307 25 62 1.6 4.8 0.00 0.41 0.03 85 1010.4
20260905135805 25 47 0.0 9.7 0.00 0.41 0.03 85 1010.3
20260905135306 25 37 3.2 9.7 0.00 0.41 0.03 85 1010.1
20260905134804 25 86 1.6 4.8 0.00 0.41 0.03 87 1009.9
20260905134607 25 62 1.6 4.8 0.00 0.41 0.03 88 1010.0
20260905134602 25 94 1.6 4.8 0.00 0.41 0.03 87 1009.9
20260905133306 25 61 0.0 4.8 0.00 0.41 0.03 88 1010.1
20260905132804 24 281 0.0 4.8 0.00 0.41 0.03 88 1010.0
20260905132306 25 316 1.6 6.4 0.00 0.43 0.03 88 1010.0
20260905131803 25 99 0.0 6.4 0.00 0.43 0.03 89 1009.9
20260905131304 25 56 3.2 6.4 0.00 0.43 0.03 92 1010.1
20260905130803 24 27 0.0 3.2 0.00 0.43 0.03 94 1010.1
20260905130304 24 305 1.6 3.2 0.00 0.43 0.03 95 1009.9
20260905125804 23 296 0.0 0.0 0.00 0.43 0.03 96 1010.0
20260905125306 23 296 0.0 0.0 0.00 0.43 0.03 96 1010.0
20260905124803 23 296 0.0 0.0 0.00 0.43 0.03 97 1010.0
20260905124304 23 296 0.0 0.0 0.00 0.46 0.03 97 1009.9
20260905123804 22 296 0.0 0.0 0.00 0.46 0.03 97 1009.9
20260905123303 22 296 0.0 0.0 0.00 0.46 0.03 97 1009.9
20260905122802 22 296 0.0 0.0 0.00 0.48 0.03 97 1010.0
20260905122302 22 296 0.0 0.0 0.00 0.48 0.03 97 1009.9
20260905121803 22 296 0.0 0.0 0.00 0.48 0.03 97 1009.8
20260905121303 21 296 0.0 0.0 0.00 0.51 0.03 97 1009.9
20260905121041 21 296 0.0 0.0 0.00 0.51 0.03 97 1009.9
20260905120303 21 296 0.0 0.0 0.00 0.51 0.03 97 1009.9
20260905115803 21 296 0.0 0.0 0.00 0.53 0.03 97 1009.8
20260905115306 21 296 0.0 0.0 0.00 0.53 0.03 97 1009.7
20260905114802 21 296 0.0 0.0 0.00 0.53 0.03 97 1009.6
20260905114302 21 296 0.0 0.0 0.00 0.53 0.03 97 1009.6
20260905113802 20 296 0.0 0.0 0.00 0.53 0.03 97 1009.7
20260905113302 20 296 0.0 0.0 0.00 0.56 0.03 97 1009.6
20260905112801 20 296 0.0 0.0 0.00 0.56 0.03 97 1009.5
20260905112305 20 296 0.0 0.0 0.00 0.56 0.03 97 1009.7
20260905111803 20 296 0.0 0.0 0.00 0.56 0.03 97 1009.7
20260905111259 20 296 0.0 0.0 0.00 0.56 0.03 97 1009.8
20260905110800 20 296 0.0 0.0 0.00 0.56 0.03 97 1009.5
20260905110259 20 296 0.0 0.0 0.00 0.58 0.03 97 1009.3
20260905110040 20 296 0.0 0.0 0.00 0.58 0.03 97 1009.2
20260905105259 20 296 0.0 0.0 0.03 0.58 0.03 97 1009.2
20260905104800 20 296 0.0 0.0 0.03 0.58 0.03 97 1009.1
20260905104259 20 296 0.0 0.0 0.03 0.58 0.03 97 1009.1
20260905103800 20 296 0.0 0.0 0.03 0.58 0.03 97 1009.1
20260905103300 20 296 0.0 0.0 0.03 0.58 0.03 97 1009.0
20260905102759 20 296 0.0 0.0 0.03 0.61 0.03 97 1008.9
20260905102259 20 296 0.0 0.0 0.03 0.61 0.03 96 1008.8
20260905101745 20 296 0.0 0.0 0.03 0.61 0.03 97 1008.8
20260905101243 20 296 0.0 0.0 0.03 0.61 0.03 97 1008.9
20260905100740 20 296 0.0 0.0 0.03 0.61 0.03 97 1008.9
20260905100235 20 296 0.0 0.0 0.03 0.61 0.03 97 1008.9
20260905095731 20 296 0.0 0.0 0.03 0.58 0.03 97 1008.8
20260905095235 20 296 0.0 0.0 0.00 0.61 0.00 97 1008.8
20260905094731 20 296 0.0 0.0 0.00 0.61 0.00 97 1008.8
20260905094231 20 296 0.0 0.0 0.00 0.61 0.00 97 1008.8
20260905093731 20 296 0.0 0.0 0.00 0.61 0.00 97 1008.8
20260905093231 20 296 0.0 0.0 0.00 0.61 0.00 97 1008.7
20260905092733 20 296 0.0 0.0 0.00 0.61 0.00 97 1008.8
20260905092340 20 296 0.0 0.0 0.00 0.64 0.00 97 1008.8
20260905092323 20 296 0.0 0.0 0.00 0.61 0.00 97 1008.7
20260905091805 20 296 0.0 0.0 0.00 0.64 0.00 97 1008.8
20260905091246 20 296 0.0 0.0 0.00 0.64 0.00 97 1008.7
20260905090232 20 296 0.0 0.0 0.00 0.64 0.00 97 1008.8
20260905085731 20 296 0.0 0.0 0.00 0.66 0.00 97 1008.8
20260905085205 20 296 0.0 0.0 0.00 0.66 0.00 97 1008.7
20260905084705 20 296 0.0 1.6 0.00 0.66 0.00 97 1008.8
20260905084203 20 296 0.0 3.2 0.00 0.66 0.00 97 1008.7
20260905083930 20 296 0.0 3.2 0.00 0.66 0.00 97 1008.7
20260905083710 20 296 0.0 3.2 0.00 0.66 0.00 97 1008.7
20260905083202 20 286 0.0 3.2 0.00 0.66 0.00 97 1008.6
20260905082701 20 350 0.0 0.0 0.00 0.69 0.00 97 1008.6
20260905082441 20 350 0.0 0.0 0.00 0.69 0.00 97 1008.7
20260905081659 20 355 0.0 0.0 0.00 0.69 0.00 97 1008.6
20260905081157 20 10 0.0 0.0 0.00 0.71 0.00 97 1008.6
20260905080655 20 10 0.0 0.0 0.00 0.71 0.00 97 1008.8
20260905080156 20 10 0.0 0.0 0.00 0.71 0.00 97 1008.9
20260905075655 20 10 0.0 0.0 0.00 0.71 0.00 97 1009.0
20260905075155 20 10 0.0 0.0 0.00 0.74 0.00 97 1009.1
20260905074656 20 10 0.0 0.0 0.00 0.74 0.00 97 1009.1
20260905074155 20 10 0.0 0.0 0.00 0.74 0.00 97 1009.1
20260905073656 21 10 0.0 0.0 0.00 0.74 0.00 97 1009.1
20260905073154 21 10 0.0 0.0 0.00 0.76 0.00 97 1009.1
20260905072655 21 10 0.0 0.0 0.00 0.76 0.00 97 1009.1
20260905072433 21 10 0.0 0.0 0.00 0.76 0.00 97 1009.1
20260905071654 21 10 0.0 0.0 0.00 0.76 0.00 97 1009.1
20260905071154 21 10 0.0 0.0 0.00 0.79 0.00 97 1009.1
20260905070655 21 34 0.0 0.0 0.00 0.79 0.00 97 1009.1
20260905070154 21 34 0.0 0.0 0.00 0.81 0.00 97 1009.1
20260905065655 21 34 0.0 1.6 0.00 0.81 0.00 97 1009.2
20260905065153 21 52 0.0 1.6 0.00 0.81 0.00 97 1009.3
20260905064653 21 52 0.0 1.6 0.00 0.81 0.00 97 1009.2
20260905064154 21 52 0.0 1.6 0.00 0.84 0.00 97 1009.3
20260905063654 21 52 0.0 1.6 0.00 0.84 0.00 96 1009.4
20260905063430 21 52 0.0 0.0 0.00 0.86 0.00 96 1009.6
20260905062654 21 52 0.0 0.0 0.00 0.86 0.00 96 1009.7
20260905062153 21 52 0.0 0.0 0.00 0.86 0.00 97 1009.7
20260905061653 21 52 0.0 0.0 0.00 0.89 0.00 97 1009.9
20260905061152 21 52 0.0 0.0 0.00 0.89 0.00 97 1010.0
20260905060720 21 52 0.0 0.0 0.00 0.91 0.00 97 1010.2
20260905060710 21 52 0.0 0.0 0.00 0.91 0.00 97 1010.0
20260905055652 21 52 0.0 0.0 0.00 0.91 0.00 96 1010.0
20260905055153 21 52 0.0 0.0 0.00 0.94 0.00 96 1010.1
20260905054653 21 52 0.0 0.0 0.00 0.94 0.00 97 1010.1
20260905054432 21 52 0.0 0.0 0.00 0.97 0.00 96 1010.2
20260905053653 21 52 0.0 0.0 0.00 0.97 0.00 96 1010.4
20260905053152 21 52 0.0 0.0 0.00 0.97 0.00 96 1010.5
20260905052652 21 52 0.0 0.0 0.00 0.99 0.00 96 1010.3
20260905052152 21 52 0.0 0.0 0.00 0.99 0.00 97 1010.3
20260905051643 21 52 0.0 0.0 0.00 1.02 0.00 96 1010.4
20260905051420 21 52 0.0 0.0 0.00 1.02 0.00 97 1010.4
20260905050917 21 52 0.0 0.0 0.00 1.04 0.00 97 1010.5
20260905050420 21 52 0.0 0.0 0.00 1.07 0.00 96 1010.5
20260905045639 21 52 0.0 0.0 0.00 1.07 0.00 96 1010.5
20260905045416 21 52 0.0 0.0 0.03 1.09 0.00 96 1010.6
20260905044639 21 52 0.0 0.0 0.03 1.09 0.00 96 1010.6
20260905044135 21 52 0.0 0.0 0.03 1.12 0.00 96 1010.7
20260905043636 21 52 0.0 0.0 0.03 1.14 0.00 96 1010.6
20260905043136 21 52 0.0 0.0 0.03 1.14 0.00 96 1010.6
20260905042635 21 52 0.0 0.0 0.03 1.17 0.00 96 1010.7
20260905042132 22 52 0.0 0.0 0.03 1.19 0.00 96 1010.7
20260905041634 22 52 0.0 0.0 0.03 1.22 0.00 96 1010.8
20260905041412 22 52 0.0 0.0 0.03 1.22 0.00 96 1010.8
20260905040634 22 52 0.0 0.0 0.03 1.24 0.00 96 1010.8
20260905040135 22 52 0.0 0.0 0.03 1.27 0.00 96 1010.9
20260905035630 22 52 0.0 0.0 0.03 1.27 1.30 96 1010.8
20260905035130 21 52 0.0 0.0 0.00 1.32 1.27 96 1010.8
20260905034606 21 52 0.0 0.0 0.00 1.35 1.27 96 1010.9
20260905034106 21 52 0.0 0.0 0.00 1.37 1.27 96 1011.0
20260905033603 22 52 0.0 0.0 0.00 1.42 1.27 96 1011.1
20260905033103 22 52 0.0 0.0 0.00 1.45 1.27 96 1011.0
20260905032602 22 52 0.0 0.0 0.00 1.50 1.27 96 1011.0
20260905032103 22 52 0.0 0.0 0.00 1.52 1.27 96 1010.9
20260905031604 22 52 0.0 0.0 0.00 1.52 1.27 96 1011.0
20260905031101 22 52 0.0 0.0 0.00 1.52 1.27 96 1011.0
20260905030845 22 52 0.0 0.0 0.00 1.52 1.27 96 1011.0
20260905025603 22 52 0.0 0.0 0.00 1.52 1.27 96 1010.9
20260905025103 22 52 0.0 0.0 0.03 1.52 1.27 96 1010.9
20260905024840 22 52 0.0 0.0 0.03 1.52 1.27 96 1011.0
20260905024102 22 52 0.0 0.0 0.03 1.52 1.27 96 1010.9
20260905023603 22 52 0.0 0.0 0.03 1.52 1.27 96 1010.9
20260905023343 22 52 0.0 0.0 0.03 1.52 1.27 96 1010.9
20260905022600 22 52 0.0 0.0 0.03 1.52 1.27 96 1010.9
20260905022059 22 52 0.0 0.0 0.03 1.52 1.27 96 1010.9
20260905021838 22 52 0.0 0.0 0.03 1.52 1.27 96 1010.9
20260905021101 22 52 0.0 0.0 0.03 1.52 1.27 96 1010.8
20260905020600 22 52 0.0 0.0 0.03 1.52 1.27 96 1010.6
20260905020056 22 52 0.0 0.0 0.03 1.52 1.27 96 1010.4
20260905015557 22 52 0.0 0.0 0.03 1.50 1.27 96 1010.4
20260905015056 22 52 0.0 0.0 0.00 1.50 1.24 96 1010.5
20260905014555 22 52 0.0 0.0 0.00 1.50 1.24 96 1010.6
20260905014056 22 52 0.0 0.0 0.00 1.50 1.24 96 1010.6
20260905013613 22 52 0.0 0.0 0.00 1.50 1.24 96 1010.4
20260905013607 22 52 0.0 0.0 0.00 1.50 1.24 96 1010.4
20260905012549 22 52 0.0 0.0 0.00 1.50 1.24 96 1010.4
20260905012046 22 52 0.0 0.0 0.00 1.50 1.24 96 1010.2
20260905011546 22 52 0.0 0.0 0.00 1.50 1.24 96 1010.1
20260905011046 22 52 0.0 0.0 0.00 1.50 1.24 96 1010.1
20260905010546 22 52 0.0 0.0 0.00 1.50 1.24 96 1010.0
20260905010047 23 52 0.0 0.0 0.00 1.50 1.24 95 1009.9
20260905005546 22 52 0.0 0.0 0.00 1.50 1.24 95 1009.8
20260905005046 23 52 0.0 0.0 0.00 1.50 1.24 96 1009.8
20260905004546 23 52 0.0 0.0 0.00 1.50 1.24 96 1009.8
20260905004324 23 52 0.0 0.0 0.00 1.50 1.24 96 1009.8
20260905003547 23 52 0.0 0.0 0.00 1.50 1.24 95 1010.0
20260905003046 23 52 0.0 0.0 0.00 1.50 1.24 95 1009.9
20260905002545 23 52 0.0 0.0 0.03 1.50 1.24 95 1009.8
20260905002045 23 52 0.0 0.0 0.03 1.50 1.24 95 1009.9
20260905001546 23 52 0.0 0.0 0.03 1.50 1.24 95 1009.9
20260905001045 23 52 0.0 0.0 0.03 1.50 1.24 95 1009.9
20260905000544 23 52 0.0 0.0 0.03 1.50 1.24 95 1009.9
20260905000325 23 52 0.0 0.0 0.03 1.50 1.24 95 1010.0
20260904235545 23 52 0.0 0.0 0.03 1.47 1.24 95 1009.9
20260904235044 23 52 0.0 0.0 0.03 1.47 1.24 95 1009.9
20260904234544 23 52 0.0 0.0 0.03 1.47 1.24 95 1009.9
20260904234044 23 52 0.0 0.0 0.03 1.47 1.24 95 1010.0
20260904233826 23 52 0.0 0.0 0.03 1.47 1.24 95 1010.1
20260904233044 23 52 0.0 0.0 0.03 1.47 1.22 95 1010.2
20260904232544 23 52 0.0 0.0 0.00 1.47 1.22 95 1010.2
20260904232045 23 52 0.0 0.0 0.00 1.47 1.22 95 1010.0
20260904231544 24 52 0.0 0.0 0.00 1.47 1.22 95 1010.1
20260904231046 24 52 0.0 0.0 0.00 1.47 1.22 95 1010.2
20260904230543 24 52 0.0 0.0 0.00 1.47 1.22 95 1010.2
20260904230106 24 52 0.0 0.0 0.00 1.47 1.22 95 1010.0
20260904230058 24 52 0.0 0.0 0.00 1.47 1.22 95 1010.1
20260904225043 24 52 0.0 0.0 0.03 1.47 1.22 95 1010.1
20260904224544 24 52 0.0 0.0 0.03 1.47 1.22 95 1009.9
20260904224309 24 52 0.0 0.0 0.03 1.47 1.22 95 1009.9
20260904223533 24 52 0.0 0.0 0.03 1.47 1.22 95 1009.6
20260904223031 24 52 0.0 0.0 0.03 1.47 1.22 95 1009.6
20260904222531 24 52 0.0 0.0 0.03 1.47 1.22 95 1009.9
20260904222031 24 52 0.0 0.0 0.03 1.47 1.22 95 1010.1
20260904221532 24 52 0.0 0.0 0.03 1.47 1.22 94 1010.2
20260904221031 24 52 0.0 0.0 0.03 1.47 1.22 95 1010.1
20260904220530 24 52 0.0 0.0 0.03 1.47 1.22 95 1010.4
20260904220032 24 52 0.0 0.0 0.03 1.45 1.22 94 1010.5
20260904215530 23 52 0.0 0.0 0.03 1.45 1.22 94 1010.6
20260904215056 23 52 0.0 0.0 0.00 1.45 1.19 94 1010.7
20260904215048 23 52 0.0 0.0 0.00 1.45 1.19 94 1010.6
20260904214018 23 52 0.0 0.0 0.00 1.45 1.19 94 1010.7
20260904213515 23 52 0.0 0.0 0.00 1.45 1.19 94 1010.6
20260904213015 23 52 0.0 0.0 0.00 1.45 1.19 93 1010.5
20260904212514 23 52 0.0 0.0 0.00 1.45 1.19 93 1010.7
20260904212012 23 52 0.0 1.6 0.03 1.45 1.19 93 1010.7
20260904211511 23 52 0.0 3.2 0.03 1.45 1.19 92 1010.7
20260904211247 24 52 0.0 4.8 0.03 1.45 1.19 92 1010.8
20260904210509 24 52 0.0 4.8 0.03 1.45 1.19 91 1010.9
20260904210010 24 275 0.0 8.0 0.03 1.42 1.19 90 1011.0
20260904205504 25 271 0.0 8.0 0.03 1.42 1.19 87 1010.7
20260904205006 25 345 1.6 8.0 0.03 1.42 1.19 85 1011.3
20260904204505 26 279 3.2 9.7 0.03 1.42 1.19 82 1011.5
20260904204003 28 248 4.8 9.7 0.03 1.42 1.19 82 1011.7
20260904203503 28 35 0.0 0.0 0.03 1.42 1.19 81 1011.1
20260904203004 28 35 0.0 0.0 0.03 1.42 1.19 81 1010.8
20260904202504 29 35 0.0 0.0 0.05 1.42 1.19 79 1010.9
20260904202244 29 35 0.0 0.0 0.03 1.42 1.17 78 1010.9
20260904201503 30 35 0.0 0.0 0.03 1.42 1.17 77 1010.9
20260904201003 30 35 0.0 0.0 0.03 1.42 1.17 76 1010.9
20260904200505 30 38 0.0 1.6 0.03 1.42 1.17 76 1010.7